| time (UTC) | temp C | wind direction | speed KPH | gust KPH | rain 1hr cm | rain 24hr cm | rain mn cm | humidity % | barometer mb |
| 20260830210504 | 15 | 170 | 8.0 | 8.0 | 0.00 | 0.00 | 0.00 | 93 | 1004.1 |
| 20260830205504 | 15 | 170 | 8.0 | 8.0 | 0.00 | 0.00 | 0.00 | 93 | 1004.1 |
| 20260830205004 | 15 | 170 | 8.0 | 8.0 | 0.00 | 0.00 | 0.00 | 93 | 1004.1 |
| 20260830204004 | 15 | 170 | 8.0 | 8.0 | 0.00 | 0.00 | 0.00 | 93 | 1004.1 |
| 20260830203504 | 15 | 170 | 8.0 | 8.0 | 0.00 | 0.00 | 0.00 | 93 | 1004.1 |
| 20260830203004 | 15 | 170 | 8.0 | 8.0 | 0.00 | 0.00 | 0.00 | 93 | 1004.1 |
| 20260830202004 | 15 | 170 | 8.0 | 8.0 | 0.00 | 0.00 | 0.00 | 93 | 1004.1 |
| 20260830195504 | 15 | 240 | 19.3 | 19.3 | 0.00 | 0.00 | 0.00 | 93 | 1004.1 |
| 20260830194004 | 15 | 240 | 19.3 | 19.3 | 0.00 | 0.00 | 0.00 | 93 | 1004.1 |
| 20260830193004 | 15 | 240 | 19.3 | 19.3 | 0.00 | 0.00 | 0.00 | 93 | 1004.1 |
| 20260830192004 | 15 | 240 | 19.3 | 19.3 | 0.00 | 0.00 | 0.00 | 93 | 1004.1 |
| 20260830190003 | 15 | 240 | 19.3 | 27.4 | 0.00 | 0.00 | 0.00 | 93 | 1004.1 |
| 20260830185504 | 16 | 210 | 27.4 | 27.4 | 0.00 | 0.00 | 0.00 | 87 | 1005.1 |
| 20260830184503 | 16 | 210 | 27.4 | 27.4 | 0.00 | 0.00 | 0.00 | 87 | 1005.1 |
| 20260830184004 | 16 | 210 | 27.4 | 27.4 | 0.00 | 0.00 | 0.00 | 87 | 1005.1 |
| 20260830183504 | 16 | 210 | 27.4 | 27.4 | 0.00 | 0.00 | 0.00 | 87 | 1005.1 |
| 20260830183005 | 16 | 210 | 27.4 | 27.4 | 0.00 | 0.00 | 0.00 | 87 | 1005.1 |
| 20260830180503 | 16 | 210 | 27.4 | 27.4 | 0.00 | 0.00 | 0.00 | 87 | 1005.1 |
| 20260830180004 | 16 | 210 | 27.4 | 27.4 | 0.00 | 0.00 | 0.00 | 87 | 1005.1 |
| 20260830175004 | 20 | 210 | 14.5 | 14.5 | 0.00 | 0.00 | 0.00 | 68 | 1004.1 |
| 20260830173504 | 20 | 210 | 14.5 | 14.5 | 0.00 | 0.00 | 0.00 | 68 | 1004.1 |
| 20260830172504 | 20 | 210 | 14.5 | 14.5 | 0.00 | 0.00 | 0.00 | 68 | 1004.1 |
| 20260830171504 | 20 | 210 | 14.5 | 14.5 | 0.00 | 0.00 | 0.00 | 68 | 1004.1 |
| 20260830171004 | 20 | 210 | 14.5 | 14.5 | 0.00 | 0.00 | 0.00 | 68 | 1004.1 |
| 20260830165504 | 21 | 180 | 20.9 | 20.9 | 0.00 | 0.00 | 0.00 | 60 | 1004.1 |
| 20260830165004 | 21 | 180 | 20.9 | 20.9 | 0.00 | 0.00 | 0.00 | 60 | 1004.1 |
| 20260830163504 | 21 | 180 | 20.9 | 20.9 | 0.00 | 0.00 | 0.00 | 60 | 1004.1 |
| 20260830163004 | 21 | 180 | 20.9 | 20.9 | 0.00 | 0.00 | 0.00 | 60 | 1004.1 |
| 20260830162004 | 21 | 180 | 20.9 | 20.9 | 0.00 | 0.00 | 0.00 | 60 | 1004.1 |
| 20260830154504 | 22 | 180 | 22.5 | 22.5 | 0.00 | 0.00 | 0.00 | 56 | 1005.1 |
| 20260830154004 | 22 | 180 | 22.5 | 22.5 | 0.00 | 0.00 | 0.00 | 56 | 1005.1 |
| 20260830152004 | 22 | 180 | 22.5 | 22.5 | 0.00 | 0.00 | 0.00 | 56 | 1005.1 |
| 20260830151504 | 22 | 180 | 22.5 | 22.5 | 0.00 | 0.00 | 0.00 | 56 | 1005.1 |
| 20260830151003 | 22 | 180 | 22.5 | 22.5 | 0.00 | 0.00 | 0.00 | 56 | 1005.1 |
| 20260830150504 | 22 | 180 | 22.5 | 22.5 | 0.00 | 0.00 | 0.00 | 56 | 1005.1 |
| 20260830150004 | 22 | 180 | 22.5 | 22.5 | 0.00 | 0.00 | 0.00 | 56 | 1005.1 |
| 20260830145504 | 22 | 200 | 20.9 | 20.9 | 0.00 | 0.00 | 0.00 | 49 | 1005.1 |
| 20260830145004 | 22 | 200 | 20.9 | 20.9 | 0.00 | 0.00 | 0.00 | 49 | 1005.1 |
| 20260830142503 | 22 | 200 | 20.9 | 20.9 | 0.00 | 0.00 | 0.00 | 49 | 1005.1 |
| 20260830135004 | 22 | 220 | 24.1 | 24.1 | 0.00 | 0.00 | 0.00 | 53 | 1006.1 |
| 20260830134503 | 22 | 220 | 24.1 | 24.1 | 0.00 | 0.00 | 0.00 | 53 | 1006.1 |
| 20260830133004 | 22 | 220 | 24.1 | 24.1 | 0.00 | 0.00 | 0.00 | 53 | 1006.1 |
| 20260830132005 | 22 | 220 | 24.1 | 24.1 | 0.00 | 0.00 | 0.00 | 53 | 1006.1 |
| 20260830131004 | 22 | 220 | 24.1 | 24.1 | 0.00 | 0.00 | 0.00 | 53 | 1006.1 |
| 20260830130504 | 22 | 220 | 24.1 | 24.1 | 0.00 | 0.00 | 0.00 | 53 | 1006.1 |
| 20260830130004 | 22 | 220 | 24.1 | 24.1 | 0.00 | 0.00 | 0.00 | 53 | 1006.1 |
| 20260830125504 | 21 | 210 | 22.5 | 22.5 | 0.00 | 0.00 | 0.00 | 60 | 1007.1 |
| 20260830125004 | 21 | 210 | 22.5 | 22.5 | 0.00 | 0.00 | 0.00 | 60 | 1007.1 |
| 20260830124503 | 21 | 210 | 22.5 | 22.5 | 0.00 | 0.00 | 0.00 | 60 | 1007.1 |
| 20260830122504 | 21 | 210 | 22.5 | 22.5 | 0.00 | 0.00 | 0.00 | 60 | 1007.1 |
| 20260830122004 | 21 | 210 | 22.5 | 22.5 | 0.00 | 0.00 | 0.00 | 60 | 1007.1 |
| 20260830121504 | 21 | 210 | 22.5 | 22.5 | 0.00 | 0.00 | 0.00 | 60 | 1007.1 |
| 20260830120004 | 21 | 210 | 22.5 | 22.5 | 0.00 | 0.00 | 0.00 | 60 | 1007.1 |
| 20260830115004 | 20 | 200 | 20.9 | 20.9 | 0.00 | 0.00 | 0.00 | 68 | 1007.1 |
| 20260830114504 | 20 | 200 | 20.9 | 20.9 | 0.00 | 0.00 | 0.00 | 68 | 1007.1 |
| 20260830114005 | 20 | 200 | 20.9 | 20.9 | 0.00 | 0.00 | 0.00 | 68 | 1007.1 |
| 20260830113004 | 20 | 200 | 20.9 | 20.9 | 0.00 | 0.00 | 0.00 | 68 | 1007.1 |
| 20260830111503 | 20 | 200 | 20.9 | 20.9 | 0.00 | 0.00 | 0.00 | 68 | 1007.1 |
| 20260830110005 | 20 | 200 | 20.9 | 20.9 | 0.00 | 0.00 | 0.00 | 68 | 1007.1 |
| 20260830105004 | 18 | 230 | 16.1 | 16.1 | 0.00 | 0.00 | 0.00 | 72 | 1007.1 |
| 20260830104504 | 18 | 230 | 16.1 | 16.1 | 0.00 | 0.00 | 0.00 | 72 | 1007.1 |
| 20260830103504 | 18 | 230 | 16.1 | 16.1 | 0.00 | 0.00 | 0.00 | 72 | 1007.1 |
| 20260830103004 | 18 | 230 | 16.1 | 16.1 | 0.00 | 0.00 | 0.00 | 72 | 1007.1 |
| 20260830101504 | 18 | 230 | 16.1 | 16.1 | 0.00 | 0.00 | 0.00 | 72 | 1007.1 |
| 20260830094505 | 17 | 210 | 19.3 | 19.3 | 0.00 | 0.00 | 0.00 | 88 | 1008.1 |
| 20260830094004 | 17 | 210 | 19.3 | 19.3 | 0.00 | 0.00 | 0.00 | 88 | 1008.1 |
| 20260830093504 | 17 | 210 | 19.3 | 19.3 | 0.00 | 0.00 | 0.00 | 88 | 1008.1 |
| 20260830092004 | 17 | 210 | 19.3 | 19.3 | 0.00 | 0.00 | 0.00 | 88 | 1008.1 |
| 20260830091004 | 17 | 210 | 19.3 | 19.3 | 0.00 | 0.00 | 0.00 | 88 | 1008.1 |
| 20260830090504 | 17 | 210 | 19.3 | 19.3 | 0.00 | 0.00 | 0.00 | 88 | 1008.1 |
| 20260830090005 | 17 | 210 | 19.3 | 19.3 | 0.00 | 0.00 | 0.00 | 88 | 1008.1 |
| 20260830085503 | 17 | 220 | 16.1 | 16.1 | 0.00 | 0.00 | 0.00 | 88 | 1007.1 |
| 20260830085005 | 17 | 220 | 16.1 | 16.1 | 0.00 | 0.00 | 0.00 | 88 | 1007.1 |
| 20260830083004 | 17 | 220 | 16.1 | 16.1 | 0.00 | 0.00 | 0.00 | 88 | 1007.1 |
| 20260830082004 | 17 | 220 | 16.1 | 16.1 | 0.00 | 0.00 | 0.00 | 88 | 1007.1 |
| 20260830080504 | 17 | 220 | 16.1 | 16.1 | 0.00 | 0.00 | 0.00 | 88 | 1007.1 |
| 20260830075504 | 16 | 220 | 12.9 | 12.9 | 0.00 | 0.00 | 0.00 | 93 | 1007.1 |
| 20260830075004 | 16 | 220 | 12.9 | 12.9 | 0.00 | 0.00 | 0.00 | 93 | 1007.1 |
| 20260830073004 | 16 | 220 | 12.9 | 12.9 | 0.00 | 0.00 | 0.00 | 93 | 1007.1 |
| 20260830072504 | 16 | 220 | 12.9 | 12.9 | 0.00 | 0.00 | 0.00 | 93 | 1007.1 |
| 20260830071504 | 16 | 220 | 12.9 | 12.9 | 0.00 | 0.00 | 0.00 | 93 | 1007.1 |
| 20260830065004 | 15 | 0 | 4.8 | 4.8 | 0.00 | 0.00 | 0.00 | 100 | 1003.0 |
| 20260830064504 | 15 | 0 | 4.8 | 4.8 | 0.00 | 0.00 | 0.00 | 100 | 1003.0 |
| 20260830064003 | 15 | 0 | 4.8 | 4.8 | 0.00 | 0.00 | 0.00 | 100 | 1003.0 |
| 20260830063504 | 15 | 0 | 4.8 | 4.8 | 0.00 | 0.00 | 0.00 | 100 | 1003.0 |
| 20260830062004 | 15 | 0 | 4.8 | 4.8 | 0.00 | 0.00 | 0.00 | 100 | 1003.0 |
| 20260830061004 | 15 | 0 | 4.8 | 4.8 | 0.00 | 0.00 | 0.00 | 100 | 1003.0 |